Location: Home
(42.5358°N, 72.7383°W)
Time: 16:44:47
(UTC-05:00)

A-11 Canister half - Pass Details

Date: 08 December 2021
Orbit: 1516 x 1684 km, 47.2° (Epoch: 18 January)

Event Time Altitude Azimuth Distance (km) Brightness Sun altitude
Rises 08:43:02 0° 277° (W) 4,795 11.1 12.6°
Reaches altitude 10° 08:46:08 10° 280° (W) 3,833 10.7 13.0°
Maximum altitude 08:55:57 68° 3° (N) 1,758 9.4 14.2°
Drops below altitude 10° 09:06:03 10° 87° (E) 3,938 11.7 15.3°
Sets 09:09:17 0° 90° (E) 4,933 12.2 15.7°
